Tracking 29892 objects as of 21-Nov-2024
HD Live streaming from Space Station
objects crossing your sky now

ONEWEB-0356

Track ONEWEB-0356 now!
10-day predictions
ONEWEB-0356 is classified as:


NORAD ID: 49283
Int'l Code: 2021-090E
Perigee: 1,186.8 km
Apogee: 1,191.0 km
Inclination: 87.9 °
Period: 109.0 minutes
Semi major axis: 7559 km
RCS: Unknown
Launch date: October 14, 2021
Source: United Kingdom (UK)
Launch site: VOSTOCHNY COSMODROME (VOSTO)
Your satellite tracking list
Your tracking list is empty




NASA's NSSDC Master Catalog

Two Line Element Set (TLE):
1 49283U 21090E   24325.14123103  .00000131  00000-0  29058-3 0  9991
2 49283  87.9284  28.6437 0002741 112.6133 247.5291 13.20770693154050
Source of the keplerian elements: AFSPC